ONEWEB-0187, 48221

Orbit data source: Space-Track

ONEWEB-0187, 48221 is a payload satellite owned by One Web (NAA) (UK) in LEO that was launched on Sun, 25 Apr 2021 UTC via a SOYUZ-2-1B launch vehicle from the Vostochny Cosmodrome (VOSTO). Payload-class satellites include a variety of spacecraft equipped with specific instruments for various scientific and technological missions. These include communications satellites like Starlink; space stations such as the ISS; scientific satellites like the Hubble; Earth observation satellites from companies like Planet Labs, Umbra, and HawkEye 360; GPS; miniature CubeSats for education and research; and military/defense satellites.

Loading next visibility...
Identifier
48221, 2021-031M
Orbit
LEO
Country
Flag of UKUK
Related business
Manufacturer
One Web
Mission
Operational Commercial Communications
Bus & Motor
ARROW, Unknown motor
Mass
148 kg wet, ~140 kg dry
Launch date (UTC)
2021-04-25 (5 years ago)
Launch vehicle
SOYUZ-2-1B
Launch site
Vostochny Cosmodrome (VOSTO)
Object type
Payload
Rocket body
Debris
Shape & HBR
Trap Box + 2 Pan, 6.7 m
Radar Cross Section
3.464 m², Large (>1 m²)

Expand to show TLE details & history
Last TLE update: 15 hours ago

TLE from 15 hours ago
0 ONEWEB-0187
1 48221U 21031M   26094.51585024 -.00000018  00000-0 -82140-4 0  9995
2 48221  87.8929 304.4266 0001604  79.1725 280.9585 13.14504723238582
Epoch: 2026-04-04T12:22Z
TLE epoch observation values (Epoch: 2026-04-04T12:22:49.460Z)
Latitude
-0.00005°
Longitude
-74.114°
Altitude
1,208.446 km
Speed
7.25 km/s
True Right ascension
20h 17m 42s
True Declination
0° 00' 00"
Sunlit
Object was in daylight at epoch
Visualization orbit readout
Latitude
Unknown
Longitude
Unknown
Altitude
Unknown
Speed
Unknown
Apparent Right ascension
Unknown
Apparent Declination
Unknown
Sunlit
N/A
Visualization observer readout
Local Sidereal Time
09:24:50
Azimuth
Unknown
Elevation
Unknown
Doppler factor
Unknown
Orbital elements
Apogee altitude
1,204.113 km
Perigee altitude
1,201.681 km
Semi-major axis
7,581.034 km
Eccentricity
0.00016
Inclination
87.8929°
RAAN
304.4266°
Arg. of periapsis
79.1725°
True anomaly
280.94045°
Mean anomaly
280.9585°
Eccentric anomaly
280.94948°
Mean motion
3.28814 °/min
Orbital period
109.48 mins
BSTAR
-0.00008214
Loading maneuver chart data...
Computing Atmospheric mass density...
Loading historical data...
Loading historical data...
Loading historical data...
Loading historical data...
Loading historical data...
Loading historical data...
Loading historical data...

Documentation

Showing up to 5 results
|